Location: Powder Track
(41.8531°N, 72.3584°W)
Time: 18:35:21
(UTC+00:00)

Tiros 1 despin weight - All Passes

Search period start: 27 July 2021 00:00
Search period end: 06 August 2021 00:00
Orbit: 593 x 642 km, 48.2° (Epoch: 27 July)

Date Brightness Start Highest point End Pass type
(mag) Time Alt. Az. Time Alt. Az. Time Alt. Az.
27 Jul - 00:16:38 10° WNW 00:21:09 47° NNE 00:25:36 10° E daylight
27 Jul - 01:58:16 10° WNW 02:02:50 60° SW 02:07:20 10° SE visible
27 Jul - 03:41:59 10° WSW 03:43:39 12° SW 03:45:19 10° SSW visible
27 Jul - 19:27:09 10° SW 19:31:41 50° SE 19:36:13 10° ENE daylight
27 Jul - 21:08:42 10° W 21:13:17 52° NNW 21:17:52 10° ENE daylight
27 Jul - 22:51:06 10° WNW 22:55:29 37° N 22:59:49 10° ENE daylight
28 Jul - 00:32:56 10° WNW 00:37:35 65° NNE 00:42:09 10° ESE daylight
28 Jul - 02:14:47 10° WNW 02:18:57 33° SW 02:23:02 10° SSE visible
28 Jul - 18:03:29 10° S 18:06:48 19° SE 18:10:09 10° E daylight
28 Jul - 19:43:11 10° WSW 19:47:53 85° SSE 19:52:36 10° ENE daylight
28 Jul - 21:25:19 10° W 21:29:47 41° N 21:34:13 10° ENE daylight
28 Jul - 23:07:34 10° WNW 23:12:01 42° N 23:16:26 10° E daylight
29 Jul - 00:49:13 10° WNW 00:53:54 82° SSW 00:58:29 10° ESE visible
29 Jul - 02:31:47 10° W 02:34:55 18° SW 02:38:01 10° S visible
29 Jul - 18:18:33 10° SSW 18:22:47 35° SE 18:27:04 10° ENE daylight
29 Jul - 19:59:33 10° WSW 20:04:13 64° NNW 20:08:52 10° ENE daylight
29 Jul - 21:41:56 10° WNW 21:46:19 37° N 21:50:41 10° ENE daylight
29 Jul - 23:23:55 10° WNW 23:28:31 53° NNE 23:33:03 10° E daylight
30 Jul - 01:05:37 10° WNW 01:10:06 48° SW 01:14:29 10° SE visible
30 Jul - 16:55:56 10° SSE 16:58:02 13° SE 17:00:10 10° ESE daylight
30 Jul - 18:34:18 10° SW 18:38:55 63° SSE 18:43:33 10° ENE daylight
30 Jul - 20:16:07 10° W 20:20:39 47° NNW 20:25:11 10° ENE daylight
30 Jul - 21:58:28 10° WNW 22:02:52 39° N 22:07:15 10° ENE daylight
30 Jul - 23:40:12 10° WNW 23:44:54 77° NNE 23:49:31 10° ESE daylight
31 Jul - 01:22:15 10° W 01:26:08 26° SW 01:29:58 10° SSE visible
31 Jul - 17:10:11 10° S 17:13:57 25° SE 17:17:46 10° E daylight
31 Jul - 18:50:29 10° WSW 18:55:10 81° NNW 18:59:53 10° ENE daylight
31 Jul - 20:32:44 10° WNW 20:37:10 39° N 20:41:35 10° ENE daylight
31 Jul - 22:14:53 10° WNW 22:19:24 45° NNE 22:23:53 10° E daylight
31 Jul - 23:56:31 10° WNW 00:01:10 67° SSW 00:05:44 10° SE daylight
01 Aug - 01:39:41 10° W 01:42:03 14° SW 01:44:24 10° SSW visible
01 Aug - 17:25:34 10° SW 17:29:59 45° SE 17:34:28 10° ENE daylight
01 Aug - 19:06:56 10° W 19:11:33 55° NNW 19:16:10 10° ENE daylight
01 Aug - 20:49:20 10° WNW 20:53:43 37° N 20:58:04 10° ENE daylight
01 Aug - 22:31:11 10° WNW 22:35:51 61° NNE 22:40:27 10° ESE daylight
02 Aug - 00:12:59 10° WNW 00:17:18 38° SW 00:21:34 10° SSE daylight
02 Aug - 16:02:11 10° S 16:05:10 17° SE 16:08:10 10° E daylight
02 Aug - 17:41:31 10° SW 17:46:09 77° SSE 17:50:51 10° ENE daylight
02 Aug - 19:23:32 10° W 19:28:01 43° N 19:32:30 10° ENE daylight
02 Aug - 21:05:49 10° WNW 21:10:16 40° N 21:14:41 10° E daylight
02 Aug - 22:47:28 10° WNW 22:52:11 89° SSW 22:56:50 10° ESE daylight
03 Aug - 00:29:50 10° W 00:33:17 21° SW 00:36:43 10° S visible
03 Aug - 16:17:02 10° SSW 16:21:07 31° SE 16:25:15 10° ENE daylight
03 Aug - 17:57:49 10° WSW 18:02:28 69° NNW 18:07:09 10° ENE daylight
03 Aug - 19:40:09 10° WNW 19:44:33 38° N 19:48:56 10° ENE daylight
03 Aug - 21:22:10 10° WNW 21:26:45 50° NNE 21:31:18 10° E daylight
03 Aug - 23:03:50 10° WNW 23:08:24 54° SW 23:12:55 10° SE daylight
04 Aug - 00:48:26 10° WSW 00:49:09 10° SW 00:49:52 10° SW visible
04 Aug - 14:55:09 10° SE 14:56:26 11° SE 14:57:43 10° ESE daylight
04 Aug - 16:32:40 10° SW 16:37:13 56° SE 16:41:48 10° ENE daylight
04 Aug - 18:14:21 10° W 18:18:53 49° NNW 18:23:27 10° ENE daylight
04 Aug - 19:56:42 10° WNW 20:01:05 38° N 20:05:29 10° ENE daylight
04 Aug - 21:38:27 10° WNW 21:43:09 71° NNE 21:47:49 10° ESE daylight
04 Aug - 23:20:24 10° WNW 23:24:29 30° SW 23:28:30 10° SSE daylight
05 Aug - 15:08:46 10° S 15:12:18 22° SE 15:15:51 10° E daylight
05 Aug - 16:48:47 10° WSW 16:53:25 88° NNW 16:58:09 10° ENE daylight
05 Aug - 18:30:58 10° WNW 18:35:23 40° N 18:39:49 10° ENE daylight
05 Aug - 20:13:08 10° WNW 20:17:38 43° NNE 20:22:06 10° E daylight
05 Aug - 21:54:45 10° WNW 21:59:27 74° SSW 22:04:06 10° SE daylight
05 Aug - 23:37:34 10° W 23:40:25 16° SW 23:43:15 10° S daylight
